Year,Month,Day,Hour,Minute,Value (Times are PST for barometer in hPa)
2015,02,07,00,00,992.10
2015,02,07,00,01,992.10
2015,02,07,00,02,992.10
2015,02,07,00,03,992.10
2015,02,07,00,04,992.10
2015,02,07,00,05,992.10
2015,02,07,00,06,992.10
2015,02,07,00,07,992.10
2015,02,07,00,09,992.10
2015,02,07,00,10,992.10
2015,02,07,00,11,992.10
2015,02,07,00,12,992.10
2015,02,07,00,13,992.10
2015,02,07,00,14,992.00
2015,02,07,00,15,992.00
2015,02,07,00,16,992.00
2015,02,07,00,17,992.00
2015,02,07,00,18,992.00
2015,02,07,00,19,992.00
2015,02,07,00,20,992.00
2015,02,07,00,21,992.00
2015,02,07,00,22,992.00
2015,02,07,00,23,992.00
2015,02,07,00,24,992.00
2015,02,07,00,25,992.00
2015,02,07,00,26,992.00
2015,02,07,00,27,992.00
2015,02,07,00,28,992.00
2015,02,07,00,29,991.80
2015,02,07,00,30,991.80
2015,02,07,00,31,991.80
2015,02,07,00,32,991.80
2015,02,07,00,33,991.80
2015,02,07,00,34,991.80
2015,02,07,00,35,991.80
2015,02,07,00,36,991.80
2015,02,07,00,37,991.80
2015,02,07,00,38,991.80
2015,02,07,00,39,991.80
2015,02,07,00,40,991.80
2015,02,07,00,41,991.80
2015,02,07,00,42,991.80
2015,02,07,00,43,991.80
2015,02,07,00,44,991.80
2015,02,07,00,45,991.80
2015,02,07,00,46,991.80
2015,02,07,00,47,991.80
2015,02,07,00,48,991.80
2015,02,07,00,49,991.80
2015,02,07,00,50,991.80
2015,02,07,00,51,991.80
2015,02,07,00,52,991.80
2015,02,07,00,53,991.80
2015,02,07,00,54,991.80
2015,02,07,00,55,991.80
2015,02,07,00,56,991.80
2015,02,07,00,57,991.80
2015,02,07,00,58,991.80
2015,02,07,00,59,991.80
2015,02,07,01,00,991.80
2015,02,07,01,01,991.80
2015,02,07,01,02,991.80
2015,02,07,01,03,991.80
2015,02,07,01,04,991.80
2015,02,07,01,05,991.80
2015,02,07,01,06,991.80
2015,02,07,01,07,991.80
2015,02,07,01,08,991.80
2015,02,07,01,09,991.80
2015,02,07,01,10,991.80
2015,02,07,01,11,991.80
2015,02,07,01,12,991.80
2015,02,07,01,13,991.80
2015,02,07,01,14,991.50
2015,02,07,01,15,991.50
2015,02,07,01,16,991.50
2015,02,07,01,17,991.50
2015,02,07,01,18,991.50
2015,02,07,01,19,991.50
2015,02,07,01,20,991.50
2015,02,07,01,22,991.50
2015,02,07,01,23,991.50
2015,02,07,01,24,991.50
2015,02,07,01,25,991.50
2015,02,07,01,26,991.50
2015,02,07,01,27,991.50
2015,02,07,01,28,991.50
2015,02,07,01,30,991.50
2015,02,07,01,31,991.50
2015,02,07,01,32,991.50
2015,02,07,01,33,991.50
2015,02,07,01,34,991.50
2015,02,07,01,35,991.50
2015,02,07,01,36,991.50
2015,02,07,01,37,991.50
2015,02,07,01,38,991.50
2015,02,07,01,39,991.50
2015,02,07,01,40,991.50
2015,02,07,01,41,991.50
2015,02,07,01,42,991.50
2015,02,07,01,43,991.50
2015,02,07,01,44,991.50
2015,02,07,01,45,991.50
2015,02,07,01,46,991.50
2015,02,07,01,47,991.50
2015,02,07,01,48,991.50
2015,02,07,01,49,991.50
2015,02,07,01,50,991.50
2015,02,07,01,51,991.50
2015,02,07,01,52,991.50
2015,02,07,01,53,991.50
2015,02,07,01,54,991.50
2015,02,07,01,55,991.50
2015,02,07,01,56,991.50
2015,02,07,01,57,991.50
2015,02,07,01,58,991.50
2015,02,07,02,00,991.50
2015,02,07,02,01,991.50
2015,02,07,02,02,991.50
2015,02,07,02,03,991.50
2015,02,07,02,04,991.50
2015,02,07,02,05,991.50
2015,02,07,02,06,991.50
2015,02,07,02,07,991.50
2015,02,07,02,08,991.50
2015,02,07,02,09,991.50
2015,02,07,02,10,991.50
2015,02,07,02,11,991.50
2015,02,07,02,12,991.50
2015,02,07,02,13,991.50
2015,02,07,02,14,991.40
2015,02,07,02,15,991.40
2015,02,07,02,16,991.40
2015,02,07,02,17,991.40
2015,02,07,02,18,991.40
2015,02,07,02,19,991.40
2015,02,07,02,20,991.40
2015,02,07,02,21,991.40
2015,02,07,02,22,991.40
2015,02,07,02,23,991.40
2015,02,07,02,24,991.40
2015,02,07,02,25,991.40
2015,02,07,02,26,991.40
2015,02,07,02,27,991.40
2015,02,07,02,28,991.40
2015,02,07,02,29,991.40
2015,02,07,02,30,991.40
2015,02,07,02,31,991.40
2015,02,07,02,32,991.40
2015,02,07,02,33,991.40
2015,02,07,02,34,991.40
2015,02,07,02,35,991.40
2015,02,07,02,36,991.40
2015,02,07,02,37,991.40
2015,02,07,02,38,991.40
2015,02,07,02,39,991.40
2015,02,07,02,40,991.40
2015,02,07,02,41,991.40
2015,02,07,02,42,991.40
2015,02,07,02,43,991.40
2015,02,07,02,44,991.30
2015,02,07,02,45,991.30
2015,02,07,02,46,991.30
2015,02,07,02,47,991.30
2015,02,07,02,48,991.30
2015,02,07,02,49,991.30
2015,02,07,02,50,991.30
2015,02,07,02,51,991.30
2015,02,07,02,52,991.30
2015,02,07,02,53,991.30
2015,02,07,02,54,991.30
2015,02,07,02,55,991.30
2015,02,07,02,56,991.30
2015,02,07,02,57,991.30
2015,02,07,02,58,991.30
2015,02,07,02,59,991.20
2015,02,07,03,00,991.20
2015,02,07,03,01,991.20
2015,02,07,03,02,991.20
2015,02,07,03,04,991.20
2015,02,07,03,05,991.20
2015,02,07,03,06,991.20
2015,02,07,03,07,991.20
2015,02,07,03,08,991.20
2015,02,07,03,09,991.20
2015,02,07,03,10,991.20
2015,02,07,03,11,991.20
2015,02,07,03,12,991.20
2015,02,07,03,13,991.20
2015,02,07,03,14,991.40
2015,02,07,03,15,991.40
2015,02,07,03,16,991.40
2015,02,07,03,17,991.40
2015,02,07,03,18,991.40
2015,02,07,03,19,991.40
2015,02,07,03,20,991.40
2015,02,07,03,21,991.40
2015,02,07,03,22,991.40
2015,02,07,03,23,991.40
2015,02,07,03,24,991.40
2015,02,07,03,25,991.40
2015,02,07,03,26,991.40
2015,02,07,03,27,991.40
2015,02,07,03,28,991.40
2015,02,07,03,29,991.40
2015,02,07,03,31,991.40
2015,02,07,03,32,991.40
2015,02,07,03,33,991.40
2015,02,07,03,34,991.40
2015,02,07,03,35,991.40
2015,02,07,03,36,991.40
2015,02,07,03,37,991.40
2015,02,07,03,38,991.40
2015,02,07,03,39,991.40
2015,02,07,03,40,991.40
2015,02,07,03,41,991.40
2015,02,07,03,42,991.40
2015,02,07,03,43,991.40
2015,02,07,03,44,991.50
2015,02,07,03,45,991.50
2015,02,07,03,46,991.50
2015,02,07,03,47,991.50
2015,02,07,03,48,991.50
2015,02,07,03,49,991.50
2015,02,07,03,50,991.50
2015,02,07,03,51,991.50
2015,02,07,03,52,991.50
2015,02,07,03,53,991.50
2015,02,07,03,54,991.50
2015,02,07,03,55,991.50
2015,02,07,03,57,991.50
2015,02,07,03,58,991.50
2015,02,07,03,59,991.30
2015,02,07,04,00,991.30
2015,02,07,04,01,991.30
2015,02,07,04,02,991.30
2015,02,07,04,03,991.30
2015,02,07,04,05,991.30
2015,02,07,04,06,991.30
2015,02,07,04,07,991.30
2015,02,07,04,08,991.30
2015,02,07,04,09,991.30
2015,02,07,04,10,991.30
2015,02,07,04,11,991.30
2015,02,07,04,12,991.30
2015,02,07,04,13,991.30
2015,02,07,04,14,991.20
2015,02,07,04,15,991.20
2015,02,07,04,16,991.20
2015,02,07,04,17,991.20
2015,02,07,04,18,991.20
2015,02,07,04,19,991.20
2015,02,07,04,20,991.20
2015,02,07,04,21,991.20
2015,02,07,04,23,991.20
2015,02,07,04,24,991.20
2015,02,07,04,25,991.20
2015,02,07,04,26,991.20
2015,02,07,04,27,991.20
2015,02,07,04,28,991.20
2015,02,07,04,29,991.10
2015,02,07,04,30,991.10
2015,02,07,04,31,991.10
2015,02,07,04,32,991.10
2015,02,07,04,33,991.10
2015,02,07,04,34,991.10
2015,02,07,04,35,991.10
2015,02,07,04,36,991.10
2015,02,07,04,37,991.10
2015,02,07,04,38,991.10
2015,02,07,04,39,991.10
2015,02,07,04,40,991.10
2015,02,07,04,41,991.10
2015,02,07,04,42,991.10
2015,02,07,04,43,991.10
2015,02,07,04,44,991.10
2015,02,07,04,45,991.10
2015,02,07,04,46,991.10
2015,02,07,04,47,991.10
2015,02,07,04,48,991.10
2015,02,07,04,49,991.10
2015,02,07,04,50,991.10
2015,02,07,04,51,991.10
2015,02,07,04,52,991.10
2015,02,07,04,53,991.10
2015,02,07,04,54,991.10
2015,02,07,04,55,991.10
2015,02,07,04,56,991.10
2015,02,07,04,57,991.10
2015,02,07,04,58,991.10
2015,02,07,04,59,991.20
2015,02,07,05,00,991.20
2015,02,07,05,01,991.20
2015,02,07,05,02,991.20
2015,02,07,05,03,991.20
2015,02,07,05,04,991.20
2015,02,07,05,05,991.20
2015,02,07,05,06,991.20
2015,02,07,05,07,991.20
2015,02,07,05,08,991.20
2015,02,07,05,09,991.20
2015,02,07,05,10,991.20
2015,02,07,05,11,991.20
2015,02,07,05,12,991.20
2015,02,07,05,13,991.20
2015,02,07,05,14,991.40
2015,02,07,05,15,991.40
2015,02,07,05,16,991.40
2015,02,07,05,17,991.40
2015,02,07,05,18,991.40
2015,02,07,05,19,991.40
2015,02,07,05,20,991.40
2015,02,07,05,21,991.40
2015,02,07,05,22,991.40
2015,02,07,05,23,991.40
2015,02,07,05,24,991.40
2015,02,07,05,25,991.40
2015,02,07,05,26,991.40
2015,02,07,05,27,991.40
2015,02,07,05,28,991.40
2015,02,07,05,30,991.40
2015,02,07,05,31,991.40
2015,02,07,05,32,991.40
2015,02,07,05,33,991.40
2015,02,07,05,34,991.40
2015,02,07,05,35,991.40
2015,02,07,05,36,991.40
2015,02,07,05,37,991.40
2015,02,07,05,38,991.40
2015,02,07,05,39,991.40
2015,02,07,05,40,991.40
2015,02,07,05,41,991.40
2015,02,07,05,42,991.40
2015,02,07,05,43,991.40
2015,02,07,05,44,991.50
2015,02,07,05,45,991.50
2015,02,07,05,47,991.50
2015,02,07,05,48,991.50
2015,02,07,05,49,991.50
2015,02,07,05,50,991.50
2015,02,07,05,51,991.50
2015,02,07,05,52,991.50
2015,02,07,05,53,991.50
2015,02,07,05,54,991.50
2015,02,07,05,55,991.50
2015,02,07,05,56,991.50
2015,02,07,05,57,991.50
2015,02,07,05,58,991.50
2015,02,07,05,59,991.60
2015,02,07,06,00,991.60
2015,02,07,06,01,991.60
2015,02,07,06,02,991.60
2015,02,07,06,03,991.60
2015,02,07,06,04,991.60
2015,02,07,06,05,991.60
2015,02,07,06,06,991.60
2015,02,07,06,07,991.60
2015,02,07,06,08,991.60
2015,02,07,06,09,991.60
2015,02,07,06,10,991.60
2015,02,07,06,11,991.60
2015,02,07,06,12,991.60
2015,02,07,06,13,991.60
2015,02,07,06,14,991.80
2015,02,07,06,15,991.80
2015,02,07,06,16,991.80
2015,02,07,06,17,991.80
2015,02,07,06,18,991.80
2015,02,07,06,19,991.80
2015,02,07,06,20,991.80
2015,02,07,06,21,991.80
2015,02,07,06,22,991.80
2015,02,07,06,23,991.80
2015,02,07,06,24,991.80
2015,02,07,06,25,991.80
2015,02,07,06,26,991.80
2015,02,07,06,27,991.80
2015,02,07,06,28,991.80
2015,02,07,06,29,992.00
2015,02,07,06,30,992.00
2015,02,07,06,31,992.00
2015,02,07,06,32,992.00
2015,02,07,06,33,992.00
2015,02,07,06,34,992.00
2015,02,07,06,35,992.00
2015,02,07,06,36,992.00
2015,02,07,06,37,992.00
2015,02,07,06,38,992.00
2015,02,07,06,39,992.00
2015,02,07,06,40,992.00
2015,02,07,06,41,992.00
2015,02,07,06,42,992.00
2015,02,07,06,43,992.00
2015,02,07,06,44,992.00
2015,02,07,06,45,992.00
2015,02,07,06,46,992.00
2015,02,07,06,47,992.00
2015,02,07,06,48,992.00
2015,02,07,06,49,992.00
2015,02,07,06,50,992.00
2015,02,07,06,51,992.00
2015,02,07,06,52,992.00
2015,02,07,06,53,992.00
2015,02,07,06,54,992.00
2015,02,07,06,55,992.00
2015,02,07,06,56,992.00
2015,02,07,06,57,992.00
2015,02,07,06,59,992.00
2015,02,07,07,00,992.00
2015,02,07,07,01,992.00
2015,02,07,07,02,992.00
2015,02,07,07,03,992.00
2015,02,07,07,04,992.00
2015,02,07,07,05,992.00
2015,02,07,07,06,992.00
2015,02,07,07,07,992.00
2015,02,07,07,08,992.00
2015,02,07,07,09,992.00
2015,02,07,07,10,992.00
2015,02,07,07,11,992.00
2015,02,07,07,12,992.00
2015,02,07,07,13,992.00
2015,02,07,07,14,992.20
2015,02,07,07,15,992.20
2015,02,07,07,16,992.20
2015,02,07,07,17,992.20
2015,02,07,07,18,992.20
2015,02,07,07,19,992.20
2015,02,07,07,20,992.20
2015,02,07,07,21,992.20
2015,02,07,07,22,992.20
2015,02,07,07,23,992.20
2015,02,07,07,24,992.20
2015,02,07,07,25,992.20
2015,02,07,07,26,992.20
2015,02,07,07,27,992.20
2015,02,07,07,28,992.20
2015,02,07,07,29,992.40
2015,02,07,07,30,992.40
2015,02,07,07,31,992.40
2015,02,07,07,32,992.40
2015,02,07,07,33,992.40
2015,02,07,07,34,992.40
2015,02,07,07,35,992.40
2015,02,07,07,36,992.40
2015,02,07,07,37,992.40
2015,02,07,07,38,992.40
2015,02,07,07,39,992.40
2015,02,07,07,40,992.40
2015,02,07,07,41,992.40
2015,02,07,07,43,992.40
2015,02,07,07,44,992.60
2015,02,07,07,45,992.60
2015,02,07,07,46,992.60
2015,02,07,07,47,992.60
2015,02,07,07,48,992.60
2015,02,07,07,49,992.60
2015,02,07,07,50,992.60
2015,02,07,07,51,992.60
2015,02,07,07,52,992.60
2015,02,07,07,53,992.60
2015,02,07,07,54,992.60
2015,02,07,07,55,992.60
2015,02,07,07,56,992.60
2015,02,07,07,57,992.60
2015,02,07,07,58,992.60
2015,02,07,07,59,992.90
2015,02,07,08,00,992.90
2015,02,07,08,01,992.90
2015,02,07,08,02,992.90
2015,02,07,08,03,992.90
2015,02,07,08,04,992.90
2015,02,07,08,05,992.90
2015,02,07,08,06,992.90
2015,02,07,08,07,992.90
2015,02,07,08,08,992.90
2015,02,07,08,09,992.90
2015,02,07,08,10,992.90
2015,02,07,08,11,992.90
2015,02,07,08,12,992.90
2015,02,07,08,13,992.90
2015,02,07,08,14,993.10
2015,02,07,08,15,993.10
2015,02,07,08,16,993.10
2015,02,07,08,17,993.10
2015,02,07,08,18,993.10
2015,02,07,08,19,993.10
2015,02,07,08,20,993.10
2015,02,07,08,21,993.10
2015,02,07,08,22,993.10
2015,02,07,08,23,993.10
2015,02,07,08,24,993.10
2015,02,07,08,25,993.10
2015,02,07,08,26,993.10
2015,02,07,08,27,993.10
2015,02,07,08,28,993.10
2015,02,07,08,29,993.20
2015,02,07,08,30,993.20
2015,02,07,08,31,993.20
2015,02,07,08,32,993.20
2015,02,07,08,33,993.20
2015,02,07,08,34,993.20
2015,02,07,08,35,993.20
2015,02,07,08,36,993.20
2015,02,07,08,37,993.20
2015,02,07,08,38,993.20
2015,02,07,08,39,993.20
2015,02,07,08,40,993.20
2015,02,07,08,41,993.20
2015,02,07,08,42,993.20
2015,02,07,08,43,993.20
2015,02,07,08,44,993.50
2015,02,07,08,45,993.50
2015,02,07,08,46,993.50
2015,02,07,08,47,993.50
2015,02,07,08,48,993.50
2015,02,07,08,49,993.50
2015,02,07,08,50,993.50
2015,02,07,08,51,993.50
2015,02,07,08,52,993.50
2015,02,07,08,53,993.50
2015,02,07,08,54,993.50
2015,02,07,08,55,993.50
2015,02,07,08,56,993.50
2015,02,07,08,57,993.50
2015,02,07,08,58,993.50
2015,02,07,08,59,993.60
2015,02,07,09,00,993.60
2015,02,07,09,01,993.60
2015,02,07,09,02,993.60
2015,02,07,09,03,993.60
2015,02,07,09,04,993.60
2015,02,07,09,05,993.60
2015,02,07,09,06,993.60
2015,02,07,09,07,993.60
2015,02,07,09,08,993.60
2015,02,07,09,09,993.60
2015,02,07,09,10,993.60
2015,02,07,09,11,993.60
2015,02,07,09,12,993.60
2015,02,07,09,13,993.60
2015,02,07,09,14,994.00
2015,02,07,09,15,994.00
2015,02,07,09,16,994.00
2015,02,07,09,17,994.00
2015,02,07,09,18,994.00
2015,02,07,09,19,994.00
2015,02,07,09,21,994.00
2015,02,07,09,22,994.00
2015,02,07,09,23,994.00
2015,02,07,09,25,994.00
2015,02,07,09,26,994.00
2015,02,07,09,27,994.00
2015,02,07,09,28,994.00
2015,02,07,09,29,994.30
2015,02,07,09,30,994.30
2015,02,07,09,31,994.30
2015,02,07,09,32,994.30
2015,02,07,09,33,994.30
2015,02,07,09,34,994.30
2015,02,07,09,35,994.30
2015,02,07,09,36,994.30
2015,02,07,09,37,994.30
2015,02,07,09,38,994.30
2015,02,07,09,39,994.30
2015,02,07,09,40,994.30
2015,02,07,09,41,994.30
2015,02,07,09,42,994.30
2015,02,07,09,43,994.30
2015,02,07,09,44,994.60
2015,02,07,09,45,994.60
2015,02,07,09,46,994.60
2015,02,07,09,47,994.60
2015,02,07,09,48,994.60
2015,02,07,09,49,994.60
2015,02,07,09,50,994.60
2015,02,07,09,51,994.60
2015,02,07,09,52,994.60
2015,02,07,09,53,994.60
2015,02,07,09,54,994.60
2015,02,07,09,55,994.60
2015,02,07,09,56,994.60
2015,02,07,09,57,994.60
2015,02,07,09,58,994.60
2015,02,07,10,00,994.70
2015,02,07,10,01,994.70
2015,02,07,10,02,994.70
2015,02,07,10,03,994.70
2015,02,07,10,04,994.70
2015,02,07,10,05,994.70
2015,02,07,10,06,994.70
2015,02,07,10,07,994.70
2015,02,07,10,08,994.70
2015,02,07,10,09,994.70
2015,02,07,10,10,994.70
2015,02,07,10,11,994.70
2015,02,07,10,12,994.70
2015,02,07,10,13,994.70
2015,02,07,10,14,995.10
2015,02,07,10,15,995.10
2015,02,07,10,16,995.10
2015,02,07,10,17,995.10
2015,02,07,10,18,995.10
2015,02,07,10,19,995.10
2015,02,07,10,20,995.10
2015,02,07,10,21,995.10
2015,02,07,10,22,995.10
2015,02,07,10,23,995.10
2015,02,07,10,24,995.10
2015,02,07,10,25,995.10
2015,02,07,10,26,995.10
2015,02,07,10,27,995.10
2015,02,07,10,28,995.10
2015,02,07,10,29,995.30
2015,02,07,10,30,995.30
2015,02,07,10,31,995.30
2015,02,07,10,32,995.30
2015,02,07,10,33,995.30
2015,02,07,10,34,995.30
2015,02,07,10,35,995.30
2015,02,07,10,36,995.30
2015,02,07,10,37,995.30
2015,02,07,10,38,995.30
2015,02,07,10,39,995.30
2015,02,07,10,40,995.30
2015,02,07,10,41,995.30
2015,02,07,10,43,995.30
2015,02,07,10,44,995.70
2015,02,07,10,45,995.70
2015,02,07,10,46,995.70
2015,02,07,10,47,995.70
2015,02,07,10,48,995.70
2015,02,07,10,49,995.70
2015,02,07,10,50,995.70
2015,02,07,10,51,995.70
2015,02,07,10,52,995.70
2015,02,07,10,53,995.70
2015,02,07,10,54,995.70
2015,02,07,10,55,995.70
2015,02,07,10,56,995.70
2015,02,07,10,57,995.70
2015,02,07,10,58,995.70
2015,02,07,10,59,996.00
2015,02,07,11,00,996.00
2015,02,07,11,01,996.00
2015,02,07,11,02,996.00
2015,02,07,11,03,996.00
2015,02,07,11,04,996.00
2015,02,07,11,05,996.00
2015,02,07,11,06,996.00
2015,02,07,11,07,996.00
2015,02,07,11,08,996.00
2015,02,07,11,09,996.00
2015,02,07,11,10,996.00
2015,02,07,11,11,996.00
2015,02,07,11,12,996.00
2015,02,07,11,13,996.00
2015,02,07,11,14,996.20
2015,02,07,11,15,996.20
2015,02,07,11,16,996.20
2015,02,07,11,17,996.20
2015,02,07,11,18,996.20
2015,02,07,11,19,996.20
2015,02,07,11,20,996.20
2015,02,07,11,21,996.20
2015,02,07,11,22,996.20
2015,02,07,11,23,996.20
2015,02,07,11,24,996.20
2015,02,07,11,25,996.20
2015,02,07,11,26,996.20
2015,02,07,11,27,996.20
2015,02,07,11,28,996.20
2015,02,07,11,29,996.70
2015,02,07,11,30,996.70
2015,02,07,11,31,996.70
2015,02,07,11,32,996.70
2015,02,07,11,33,996.70
2015,02,07,11,34,996.70
2015,02,07,11,35,996.70
2015,02,07,11,36,996.70
2015,02,07,11,37,996.70
2015,02,07,11,38,996.70
2015,02,07,11,39,996.70
2015,02,07,11,40,996.70
2015,02,07,11,41,996.70
2015,02,07,11,42,996.70
2015,02,07,11,43,996.70
2015,02,07,11,44,996.80
2015,02,07,11,45,996.80
2015,02,07,11,46,996.80
2015,02,07,11,47,996.80
2015,02,07,11,48,996.80
2015,02,07,11,49,996.80
2015,02,07,11,50,996.80
2015,02,07,11,51,996.80
2015,02,07,11,52,996.80
2015,02,07,11,53,996.80
2015,02,07,11,54,996.80
2015,02,07,11,55,996.80
2015,02,07,11,56,996.80
2015,02,07,11,57,996.80
2015,02,07,11,58,996.80
2015,02,07,11,59,997.10
2015,02,07,12,00,997.10
2015,02,07,12,01,997.10
2015,02,07,12,02,997.10
2015,02,07,12,03,997.10
2015,02,07,12,04,997.10
2015,02,07,12,05,997.10
2015,02,07,12,06,997.10
2015,02,07,12,07,997.10
2015,02,07,12,08,997.10
2015,02,07,12,09,997.10
2015,02,07,12,10,997.10
2015,02,07,12,11,997.10
2015,02,07,12,12,997.10
2015,02,07,12,13,997.10
2015,02,07,12,14,997.30
2015,02,07,12,15,997.30
2015,02,07,12,16,997.30
2015,02,07,12,17,997.30
2015,02,07,12,18,997.30
2015,02,07,12,19,997.30
2015,02,07,12,20,997.30
2015,02,07,12,21,997.30
2015,02,07,12,22,997.30
2015,02,07,12,23,997.30
2015,02,07,12,24,997.30
2015,02,07,12,25,997.30
2015,02,07,12,26,997.30
2015,02,07,12,27,997.30
2015,02,07,12,28,997.30
2015,02,07,12,29,997.70
2015,02,07,12,30,997.70
2015,02,07,12,31,997.70
2015,02,07,12,32,997.70
2015,02,07,12,33,997.70
2015,02,07,12,34,997.70
2015,02,07,12,35,997.70
2015,02,07,12,36,997.70
2015,02,07,12,37,997.70
2015,02,07,12,38,997.70
2015,02,07,12,39,997.70
2015,02,07,12,40,997.70
2015,02,07,12,41,997.70
2015,02,07,12,42,997.70
2015,02,07,12,43,997.70
2015,02,07,12,44,998.10
2015,02,07,12,45,998.10
2015,02,07,12,46,998.10
2015,02,07,12,47,998.10
2015,02,07,12,49,998.10
2015,02,07,12,50,998.10
2015,02,07,12,51,998.10
2015,02,07,12,52,998.10
2015,02,07,12,53,998.10
2015,02,07,12,54,998.10
2015,02,07,12,55,998.10
2015,02,07,12,56,998.10
2015,02,07,12,57,998.10
2015,02,07,12,58,998.10
2015,02,07,12,59,998.30
2015,02,07,13,00,998.30
2015,02,07,13,01,998.30
2015,02,07,13,02,998.30
2015,02,07,13,03,998.30
2015,02,07,13,04,998.30
2015,02,07,13,05,998.30
2015,02,07,13,06,998.30
2015,02,07,13,07,998.30
2015,02,07,13,08,998.30
2015,02,07,13,09,998.30
2015,02,07,13,10,998.30
2015,02,07,13,11,998.30
2015,02,07,13,12,998.30
2015,02,07,13,13,998.30
2015,02,07,13,14,998.80
2015,02,07,13,15,998.80
2015,02,07,13,16,998.80
2015,02,07,13,17,998.80
2015,02,07,13,18,998.80
2015,02,07,13,19,998.80
2015,02,07,13,20,998.80
2015,02,07,13,21,998.80
2015,02,07,13,22,998.80
2015,02,07,13,23,998.80
2015,02,07,13,24,998.80
2015,02,07,13,25,998.80
2015,02,07,13,26,998.80
2015,02,07,13,27,998.80
2015,02,07,13,28,998.80
2015,02,07,13,29,998.90
2015,02,07,13,30,998.90
2015,02,07,13,31,998.90
2015,02,07,13,32,998.90
2015,02,07,13,33,998.90
2015,02,07,13,34,998.90
2015,02,07,13,35,998.90
2015,02,07,13,36,998.90
2015,02,07,13,37,998.90
2015,02,07,13,38,998.90
2015,02,07,13,39,998.90
2015,02,07,13,40,998.90
2015,02,07,13,41,998.90
2015,02,07,13,42,998.90
2015,02,07,13,43,998.90
2015,02,07,13,44,999.20
2015,02,07,13,45,999.20
2015,02,07,13,46,999.20
2015,02,07,13,47,999.20
2015,02,07,13,48,999.20
2015,02,07,13,49,999.20
2015,02,07,13,50,999.20
2015,02,07,13,51,999.20
2015,02,07,13,52,999.20
2015,02,07,13,53,999.20
2015,02,07,13,54,999.20
2015,02,07,13,55,999.20
2015,02,07,13,56,999.20
2015,02,07,13,57,999.20
2015,02,07,13,58,999.20
2015,02,07,13,59,999.40
2015,02,07,14,00,999.40
2015,02,07,14,01,999.40
2015,02,07,14,02,999.40
2015,02,07,14,03,999.40
2015,02,07,14,04,999.40
2015,02,07,14,05,999.40
2015,02,07,14,06,999.40
2015,02,07,14,07,999.40
2015,02,07,14,09,999.40
2015,02,07,14,10,999.40
2015,02,07,14,11,999.40
2015,02,07,14,12,999.40
2015,02,07,14,13,999.40
2015,02,07,14,14,999.80
2015,02,07,14,15,999.80
2015,02,07,14,16,999.80
2015,02,07,14,17,999.80
2015,02,07,14,18,999.80
2015,02,07,14,19,999.80
2015,02,07,14,20,999.80
2015,02,07,14,21,999.80
2015,02,07,14,22,999.80
2015,02,07,14,23,999.80
2015,02,07,14,24,999.80
2015,02,07,14,25,999.80
2015,02,07,14,26,999.80
2015,02,07,14,27,999.80
2015,02,07,14,28,999.80
2015,02,07,14,33,1000.10
2015,02,07,17,08,1001.80
2015,02,07,17,09,1001.80
2015,02,07,17,10,1001.80
2015,02,07,17,11,1001.80
2015,02,07,17,12,1001.80
2015,02,07,17,13,1001.80
2015,02,07,17,15,1001.80
2015,02,07,17,16,1001.80
2015,02,07,17,17,1001.80
2015,02,07,17,18,1001.80
2015,02,07,17,19,1001.80
2015,02,07,17,20,1001.80
2015,02,07,17,21,1001.80
2015,02,07,17,22,1001.80
2015,02,07,17,23,1001.80
2015,02,07,17,24,1001.80
2015,02,07,17,25,1001.80
2015,02,07,17,26,1001.80
2015,02,07,17,27,1001.80
2015,02,07,17,28,1001.80
2015,02,07,17,29,1002.00
2015,02,07,17,30,1002.00
2015,02,07,17,31,1002.00
2015,02,07,17,32,1002.00
2015,02,07,17,33,1002.00
2015,02,07,17,34,1002.00
2015,02,07,17,35,1002.00
2015,02,07,17,37,1002.00
2015,02,07,17,38,1002.00
2015,02,07,17,39,1002.00
2015,02,07,17,40,1002.00
2015,02,07,17,42,1002.00
2015,02,07,17,43,1002.00
2015,02,07,17,44,1002.10
2015,02,07,17,45,1002.10
2015,02,07,17,46,1002.10
2015,02,07,17,47,1002.10
2015,02,07,17,48,1002.10
2015,02,07,17,49,1002.10
2015,02,07,17,50,1002.10
2015,02,07,17,51,1002.10
2015,02,07,17,52,1002.10
2015,02,07,17,53,1002.10
2015,02,07,17,54,1002.10
2015,02,07,17,55,1002.10
2015,02,07,17,56,1002.10
2015,02,07,17,57,1002.10
2015,02,07,17,58,1002.10
2015,02,07,17,59,1002.50
2015,02,07,18,00,1002.50
2015,02,07,18,01,1002.50
2015,02,07,18,02,1002.50
2015,02,07,18,03,1002.50
2015,02,07,18,04,1002.50
2015,02,07,18,05,1002.50
2015,02,07,18,06,1002.50
2015,02,07,18,07,1002.50
2015,02,07,18,08,1002.50
2015,02,07,18,09,1002.50
2015,02,07,18,10,1002.50
2015,02,07,18,11,1002.50
2015,02,07,18,12,1002.50
2015,02,07,18,13,1002.50
2015,02,07,18,14,1003.00
2015,02,07,18,15,1003.00
2015,02,07,18,16,1003.00
2015,02,07,18,17,1003.00
2015,02,07,18,18,1003.00
2015,02,07,18,19,1003.00
2015,02,07,18,20,1003.00
2015,02,07,18,21,1003.00
2015,02,07,18,22,1003.00
2015,02,07,18,23,1003.00
2015,02,07,18,24,1003.00
2015,02,07,18,25,1003.00
2015,02,07,18,26,1003.00
2015,02,07,18,27,1003.00
2015,02,07,18,28,1003.00
2015,02,07,18,29,1003.10
2015,02,07,18,30,1003.10
2015,02,07,18,31,1003.10
2015,02,07,18,32,1003.10
2015,02,07,18,33,1003.10
2015,02,07,18,34,1003.10
2015,02,07,18,35,1003.10
2015,02,07,18,36,1003.10
2015,02,07,18,37,1003.10
2015,02,07,18,38,1003.10
2015,02,07,18,39,1003.10
2015,02,07,18,40,1003.10
2015,02,07,18,41,1003.10
2015,02,07,18,42,1003.10
2015,02,07,18,43,1003.10
2015,02,07,18,44,1003.10
2015,02,07,18,45,1003.10
2015,02,07,18,46,1003.10
2015,02,07,18,47,1003.10
2015,02,07,18,48,1003.10
2015,02,07,18,49,1003.10
2015,02,07,18,50,1003.10
2015,02,07,18,51,1003.10
2015,02,07,18,52,1003.10
2015,02,07,18,53,1003.10
2015,02,07,18,54,1003.10
2015,02,07,18,55,1003.10
2015,02,07,18,56,1003.10
2015,02,07,18,57,1003.10
2015,02,07,18,58,1003.10
2015,02,07,18,59,1003.50
2015,02,07,19,00,1003.50
2015,02,07,19,01,1003.50
2015,02,07,19,02,1003.50
2015,02,07,19,04,1003.50
2015,02,07,19,05,1003.50
2015,02,07,19,06,1003.50
2015,02,07,19,07,1003.50
2015,02,07,19,09,1003.50
2015,02,07,19,10,1003.50
2015,02,07,19,11,1003.50
2015,02,07,19,12,1003.50
2015,02,07,19,13,1003.50
2015,02,07,19,14,1003.60
2015,02,07,19,15,1003.60
2015,02,07,19,16,1003.60
2015,02,07,19,17,1003.60
2015,02,07,19,18,1003.60
2015,02,07,19,19,1003.60
2015,02,07,19,20,1003.60
2015,02,07,19,21,1003.60
2015,02,07,19,22,1003.60
2015,02,07,19,23,1003.60
2015,02,07,19,25,1003.60
2015,02,07,19,26,1003.60
2015,02,07,19,27,1003.60
2015,02,07,19,28,1003.60
2015,02,07,19,29,1003.50
2015,02,07,19,30,1003.50
2015,02,07,19,31,1003.50
2015,02,07,19,32,1003.50
2015,02,07,19,33,1003.50